When you browse on this site, cookies collect data to enhance your experience and personalize the content and advertising you see.
Visit our Privacy Policy to learn more. By continuing to use the site, you agree to this use of cookies and data.
  • En España
  • Lista de países
  • Para 7 días
  • Temperatura del agua
  • El tiempo en el mapa
  • Informadores
  • user-avatar
    Iniciar sesión

    Tiempo cada hora Shkoder

    Hoy, 7 Junio, Domingo

    Tiempo Temperatura Precipitaciones Viento Presión Humedad
    00:00 +16°C° 0 mm 1 mps 734 mmHg 91%
    01:00 +16°C° 0 mm 1 mps 734 mmHg 93%
    02:00 +16°C° 0 mm 1 mps 735 mmHg 93%
    03:00 +16°C° 0 mm 1 mps 735 mmHg 94%
    04:00 +16°C° 0 mm 1 mps 735 mmHg 94%
    05:00 +18°C° 0 mm 1 mps 735 mmHg 91%
    06:00 +19°C° 0 mm 1 mps 735 mmHg 89%
    07:00 +20°C° 0 mm 1 mps 735 mmHg 86%
    08:00 +21°C° 0 mm 1 mps 735 mmHg 81%
    09:00 +22°C° 0 mm 1 mps 735 mmHg 76%
    10:00 +23°C° 0 mm 1 mps 735 mmHg 71%
    11:00 +24°C° 0 mm 2 mps 735 mmHg 70%
    12:00 +24°C° 0 mm 2 mps 735 mmHg 69%
    13:00 +24°C° 0 mm 3 mps 735 mmHg 69%
    14:00 +24°C° 0 mm 3 mps 735 mmHg 69%
    15:00 +24°C° 0 mm 3 mps 735 mmHg 69%
    16:00 +24°C° 0 mm 2 mps 735 mmHg 69%
    17:00 +21°C° 0 mm 2 mps 735 mmHg 76%
    18:00 +20°C° 0 mm 2 mps 735 mmHg 82%
    19:00 +20°C° 0 mm 1 mps 735 mmHg 88%
    20:00 +19°C° 0 mm 1 mps 736 mmHg 89%
    21:00 +18°C° 0 mm 1 mps 736 mmHg 89%
    22:00 +18°C° 0 mm 1 mps 736 mmHg 89%
    23:00 +18°C° 0 mm 1 mps 736 mmHg 89%

    Mañana, 8 Junio, Lunes

    Tiempo Temperatura Precipitaciones Viento Presión Humedad
    00:00 +16°C° 0 mm 1 mps 736 mmHg 89%
    01:00 +16°C° 0 mm 1 mps 736 mmHg 88%
    02:00 +16°C° 0 mm 1 mps 735 mmHg 87%
    03:00 +16°C° 0 mm 1 mps 735 mmHg 86%
    04:00 +16°C° 0 mm 1 mps 735 mmHg 85%
    05:00 +19°C° 0 mm 1 mps 735 mmHg 82%
    06:00 +20°C° 0 mm 1 mps 735 mmHg 79%
    07:00 +21°C° 0 mm 1 mps 736 mmHg 76%
    08:00 +22°C° 0.1 mm 1 mps 736 mmHg 73%
    09:00 +24°C° 0.1 mm 1 mps 736 mmHg 71%
    10:00 +25°C° 0.1 mm 1 mps 736 mmHg 68%
    11:00 +25°C° 0.4 mm 2 mps 735 mmHg 66%
    12:00 +25°C° 0.4 mm 2 mps 735 mmHg 64%
    13:00 +26°C° 0.4 mm 3 mps 735 mmHg 63%
    14:00 +26°C° 0.4 mm 2 mps 735 mmHg 63%
    15:00 +25°C° 0.4 mm 2 mps 735 mmHg 64%
    16:00 +25°C° 0.4 mm 2 mps 735 mmHg 64%
    17:00 +24°C° 0.1 mm 2 mps 735 mmHg 69%
    18:00 +22°C° 0.1 mm 1 mps 735 mmHg 74%
    19:00 +21°C° 0.1 mm 1 mps 735 mmHg 79%
    20:00 +20°C° 0 mm 1 mps 735 mmHg 79%
    21:00 +20°C° 0 mm 1 mps 735 mmHg 79%
    22:00 +19°C° 0 mm 1 mps 736 mmHg 79%
    23:00 +19°C° 0.2 mm 1 mps 736 mmHg 80%

    Pasado mañana, 9 Junio, Martes

    Tiempo Temperatura Precipitaciones Viento Presión Humedad
    00:00 +19°C° 0.2 mm 1 mps 736 mmHg 82%
    01:00 +18°C° 0.2 mm 1 mps 736 mmHg 83%
    02:00 +18°C° 0.1 mm 1 mps 735 mmHg 83%
    03:00 +18°C° 0.1 mm 1 mps 735 mmHg 83%
    04:00 +18°C° 0.1 mm 1 mps 735 mmHg 83%
    05:00 +20°C° 0.1 mm 1 mps 735 mmHg 78%
    06:00 +21°C° 0.1 mm 1 mps 735 mmHg 74%
    07:00 +23°C° 0.1 mm 1 mps 736 mmHg 70%
    08:00 +24°C° 0.2 mm 1 mps 736 mmHg 65%
    09:00 +25°C° 0.2 mm 1 mps 736 mmHg 59%
    10:00 +27°C° 0.2 mm 1 mps 736 mmHg 54%
    11:00 +27°C° 0.1 mm 2 mps 735 mmHg 54%
    12:00 +27°C° 0.1 mm 2 mps 735 mmHg 53%
    13:00 +27°C° 0.1 mm 3 mps 735 mmHg 52%
    14:00 +27°C° 0.1 mm 3 mps 735 mmHg 55%
    15:00 +26°C° 0.1 mm 2 mps 735 mmHg 59%
    16:00 +25°C° 0.1 mm 2 mps 735 mmHg 62%
    17:00 +24°C° 0 mm 2 mps 735 mmHg 67%
    18:00 +22°C° 0 mm 1 mps 735 mmHg 71%
    19:00 +21°C° 0 mm 1 mps 735 mmHg 76%
    20:00 +20°C° 0 mm 1 mps 736 mmHg 77%
    21:00 +19°C° 0 mm 1 mps 736 mmHg 78%
    22:00 +19°C° 0 mm 1 mps 737 mmHg 79%
    23:00 +19°C° 0.1 mm 1 mps 736 mmHg 80%

    10 Junio, Miércoles

    Tiempo Temperatura Precipitaciones Viento Presión Humedad
    00:00 +19°C° 0.1 mm 1 mps 736 mmHg 81%
    01:00 +19°C° 0.1 mm 1 mps 736 mmHg 82%
    02:00 +18°C° 0.2 mm 1 mps 736 mmHg 83%
    03:00 +18°C° 0.2 mm 1 mps 736 mmHg 84%
    04:00 +16°C° 0.2 mm 1 mps 736 mmHg 85%
    05:00 +19°C° 0.1 mm 1 mps 736 mmHg 81%
    06:00 +20°C° 0.1 mm 1 mps 736 mmHg 78%
    07:00 +22°C° 0.1 mm 1 mps 736 mmHg 75%
    08:00 +23°C° 0.5 mm 1 mps 736 mmHg 73%
    09:00 +24°C° 0.5 mm 2 mps 736 mmHg 70%
    10:00 +25°C° 0.5 mm 2 mps 736 mmHg 68%
    11:00 +25°C° 0.7 mm 2 mps 736 mmHg 68%
    12:00 +25°C° 0.7 mm 2 mps 736 mmHg 68%
    13:00 +25°C° 0.7 mm 3 mps 735 mmHg 68%
    14:00 +25°C° 0.4 mm 2 mps 735 mmHg 66%
    15:00 +25°C° 0.4 mm 2 mps 735 mmHg 65%
    16:00 +24°C° 0.4 mm 2 mps 735 mmHg 64%
    17:00 +23°C° 0.1 mm 2 mps 735 mmHg 68%
    18:00 +22°C° 0.1 mm 1 mps 735 mmHg 72%
    19:00 +20°C° 0.1 mm 1 mps 735 mmHg 76%
    20:00 +19°C° 0 mm 1 mps 735 mmHg 77%
    21:00 +18°C° 0 mm 1 mps 735 mmHg 78%
    22:00 +18°C° 0 mm 1 mps 735 mmHg 79%
    23:00 +16°C° 0 mm 1 mps 735 mmHg 79%

    11 Junio, Jueves

    Tiempo Temperatura Precipitaciones Viento Presión Humedad
    00:00 +16°C° 0 mm 1 mps 735 mmHg 79%
    01:00 +16°C° 0 mm 1 mps 735 mmHg 79%
    02:00 +15°C° 0 mm 1 mps 735 mmHg 78%
    03:00 +15°C° 0 mm 1 mps 735 mmHg 77%
    04:00 +15°C° 0 mm 1 mps 735 mmHg 76%
    05:00 +18°C° 0 mm 1 mps 735 mmHg 73%
    06:00 +19°C° 0 mm 1 mps 734 mmHg 69%
    07:00 +21°C° 0 mm 1 mps 734 mmHg 66%
    08:00 +22°C° 0.5 mm 1 mps 734 mmHg 65%
    09:00 +23°C° 0.5 mm 1 mps 734 mmHg 64%
    10:00 +23°C° 0.5 mm 2 mps 734 mmHg 63%
    11:00 +23°C° 1.3 mm 2 mps 734 mmHg 65%
    12:00 +23°C° 1.3 mm 2 mps 733 mmHg 67%
    13:00 +22°C° 1.3 mm 3 mps 733 mmHg 69%
    14:00 +23°C° 0.8 mm 2 mps 733 mmHg 70%
    15:00 +21°C° 0.8 mm 2 mps 733 mmHg 72%
    16:00 +21°C° 0.8 mm 2 mps 733 mmHg 74%
    17:00 +20°C° 0.3 mm 2 mps 733 mmHg 77%
    18:00 +20°C° 0.3 mm 1 mps 733 mmHg 81%
    19:00 +19°C° 0.3 mm 1 mps 733 mmHg 85%
    20:00 +18°C° 0.1 mm 1 mps 733 mmHg 85%
    21:00 +18°C° 0.1 mm 1 mps 733 mmHg 86%
    22:00 +15°C° 0.1 mm 0 mps 734 mmHg 87%
    23:00 +16°C° 0 mm 1 mps 733 mmHg 87%

    12 Junio, Viernes

    Tiempo Temperatura Precipitaciones Viento Presión Humedad
    00:00 +16°C° 0 mm 1 mps 733 mmHg 87%
    01:00 +15°C° 0 mm 1 mps 733 mmHg 87%
    02:00 +15°C° 0 mm 1 mps 733 mmHg 87%
    03:00 +15°C° 0 mm 1 mps 733 mmHg 87%
    04:00 +15°C° 0 mm 1 mps 733 mmHg 86%
    05:00 +15°C° 0 mm 0 mps 733 mmHg 83%
    06:00 +17°C° 0 mm 0 mps 733 mmHg 80%
    07:00 +18°C° 0 mm 0 mps 734 mmHg 76%
    08:00 +21°C° 0.1 mm 1 mps 734 mmHg 72%
    09:00 +23°C° 0.1 mm 1 mps 734 mmHg 69%
    10:00 +24°C° 0.1 mm 1 mps 734 mmHg 65%
    11:00 +24°C° 0.4 mm 2 mps 734 mmHg 65%
    12:00 +24°C° 0.4 mm 2 mps 733 mmHg 65%
    13:00 +25°C° 0.4 mm 3 mps 733 mmHg 66%
    14:00 +24°C° 0.4 mm 3 mps 733 mmHg 68%
    15:00 +24°C° 0.4 mm 2 mps 733 mmHg 70%
    16:00 +24°C° 0.4 mm 2 mps 733 mmHg 72%
    17:00 +23°C° 0.1 mm 2 mps 733 mmHg 77%
    18:00 +20°C° 0.1 mm 2 mps 733 mmHg 82%
    19:00 +20°C° 0.1 mm 1 mps 734 mmHg 87%
    20:00 +19°C° 0 mm 1 mps 734 mmHg 88%
    21:00 +19°C° 0 mm 1 mps 734 mmHg 88%
    22:00 +18°C° 0 mm 1 mps 735 mmHg 89%
    23:00 +18°C° 0 mm 1 mps 735 mmHg 89%
    Mostrar más